CLASSIFICA

MARTANI SUPERBIKE

Massa Martana

(15/07/2018)

DIVISIONI:
GF     GIOVANI     MF     CLASSIFICA:   ASSOLUTA    M     F    
CATEGORIE:   TUTTE    |   ELITE   |   ELITE F   |   ELITE SPORT   |   JUNIOR F   |   JUNIOR M   |   M OVER   |   M1   |   M2   |   M3   |   M4   |   M5   |   M6   |   W1   |   W2  
FILTRO:
  Atleta      Team        Pulisci       Atleti classificati GF: 284  

Cliccare sulle colonne per cambiare ordinamento Pagina:   | 1 | | 2 | | 3 | | 4 | | 5 | | 6 |
Azioni Pos. M/F Cat. P.Cat. Pett Naz Atleta Squadra Tempo Km/h
11ELITE18FAILLI FRANCESCOA.S.D. CICLI TADDEI02:21:33 22.050
22ELITE21ROCCHETTI LEOPOLDOBIKE THERAPY A.S.D.02:23:22 21.770
33ELITE32PIERPAOLI LORENZOVELO CLUB CICLI CINGOLANI ASD02:23:58 21.679
44ELITE44CICCANTI MARCOBOTTECCHIA FACTORY TEAM02:27:07 21.208
55ELITE519PANARIELLO GIUSEPPEA.S.D. CICLI TADDEI02:27:12 21.196
66ELITE66ANGELETTI MICHELEBIKE THERAPY A.S.D.02:30:48 20.690
77ELITE712CODONI LUCAROYAL BIKE02:32:13 20.497
88ELITE85VALENTE ALESSANDROVITTORIA LEPONTIA RACING TEAM02:33:44 20.295
99M11373ROSSI FEDERICOVELO CLUB CICLI CINGOLANI ASD02:35:13 20.101
1010ELITE SPORT163BALLONI ALFREDOASD CUSTOM4.IT CYCLING TEAM02:36:04 19.992
1111M21301CELLINI ALESSIOCTM CENTRO DEDICATO AL CICLISMO ASD02:36:40 19.915
1212M41227PEZZOTTI ANDREAASD TEAM BIKE CIVITAVECCHIA02:38:35 19.674
1313M22392GUIDUCCI ANGELOASD TEAM BIKE CIVITAVECCHIA02:38:35 19.674
1414ELITE SPORT2116DI EMIDIO GIANLUCACASTELTROSINO SUPERBIKE02:39:34 19.553
1515ELITE SPORT3299CAVESE DANIELEA.S.D. MTB RUOTE MATTE CECCANO02:41:18 19.343
1616M31159GRELLI EMANUELESC PARLESCA TEAM MOTORPOINT02:43:15 19.112
1717ELITE933MARIANI ANTONIOBIKE THERAPY A.S.D.02:44:24 18.978
1818ELITE1018DESANTIS ALESSANDROMTB CLUB SPOLETO02:44:35 18.957
1919M32325DILETTI ALESSANDROAVIS BIKE CINGOLI02:45:07 18.896
2020M33378TOTI PALMIROAPD CIOCIARIA BIKE02:46:44 18.713
2121M34183MARIANANTONI GIOVANNIMOUNTAIN BIKE CLUB RIETI02:47:17 18.651
2222M23224PETRINI STEFANOASD MC2 BIKE02:47:51 18.588
2323M OVER117MILANETTO MASSIMOA.S. DILETTANTISTICA ATHESTE BIKE02:48:40 18.498
2424M35114DE PROSPERIS GIULIOASD CUSTOM4.IT CYCLING TEAM02:49:41 18.387
2525M5194CETRA MIRCOUC PETRIGNANO ASD02:50:45 18.272
2626ELITE1110CAPPELLETTI FABIOD'ASCENZIO BIKE02:51:31 18.191
2727M12199MORONCI CLAUDIOBIKE THERAPY A.S.D.02:51:59 18.141
2828M13280VITALE FRANCESCOASD GUSTATREVI MTB02:52:06 18.129
2929ELITE1213GIORGINI DAVIDEPRD SPORT FACTORY TEAM02:54:20 17.897
3030ELITE SPORT4106COMMODI VALENTINOASD MC2 BIKE02:54:30 17.880
3131JUNIOR M134MORI MICHELEBIKE THERAPY A.S.D.02:55:01 17.827
3232M52135FROSINI FABIOG.S. TESTI CICLI A.S.D.02:55:08 17.815
3333M42202MOSTARDA DARIOMOUNTAIN BIKE CLUB RIETI02:55:45 17.753
3434M3656ALUNNO SELLERI LUCAUMBERTIDE CYCLING TEAM02:55:47 17.749
3535ELITE SPORT5448SANTOLINI CRISTIANOBICI ADVENTURE TEAM A.S.D.02:55:48 17.747
361W1123SCIPIONI SILVIAA.S.D. CICLI TADDEI02:55:51 17.742
3736M14102CIUCCI MARCOASD MTB CASTIGLIONE DEL LAGO02:55:52 17.741
3837M4358ANDREANI MICHELEG.S. TESTI CICLI A.S.D.02:56:08 17.714
3938M15273TOMASSOLI DIEGODIEFFE BIKE TEAM02:56:10 17.711
4039M2477BONINSEGNI LUCATEAM SCOTT PASQUINI STELLA AZZURRA02:57:07 17.616
4140M44186MARIOTTI FRANCESCOVELO CLUB CICLI CINGOLANI ASD02:57:25 17.586
4241M53363ROMITO DOMENICOASD CICLI ROMA CLUB BIKE FARM02:58:11 17.510
4342M16372SCORTECHINI FRANCESCOAVIS BIKE CINGOLI02:58:12 17.508
4443M54192MENGHINI GIAMPIEROVELO CLUB CICLI CINGOLANI ASD02:58:13 17.507
4544M4552AGOSTINI ULDERICOMTB CLUB SPOLETO02:58:15 17.504
462ELITE F120FIORI JENNIFERBIKE THERAPY A.S.D.02:58:19 17.497
4745M17162LALONI FABRIZIOUC PETRIGNANO ASD02:58:20 17.495
4846M25290BIANCHINI MATTEOASD CICLI FATATO02:58:44 17.456
4947M26348PACIFICI DANILOASD CICLI FATATO02:58:44 17.456
5048M46112CUCCHIARINI RINALDO LUCAA.S.D. BIKERS NOCERA UMBRA02:58:44 17.456
5149M37190MASTRINI MARCOA.S.D. BIKERS NOCERA UMBRA02:59:14 17.408
5250M61200MOSCHETTI MARIOSC PARLESCA TEAM MOTORPOINT02:59:46 17.356
5351M47121EDOARDINI MAURIZIOMOUNTAIN BIKE CLUB RIETI03:00:17 17.306
5452ELITE SPORT6412CIOTOLI RICCARDOA.S.D. MTB RUOTE MATTE CECCANO03:00:54 17.247
5553M18435SORDI ALESSIOA.S.D. PEDALA CHE TI PASSA03:01:23 17.201
5654M48442ZOCO MARIANOASD TEAM BIKE CIVITAVECCHIA03:01:26 17.196
5755M4960ARCALENI CARLOUMBERTIDE CYCLING TEAM03:01:33 17.185
5856M55137GALLI LANFRANCOUC PETRIGNANO ASD03:01:47 17.163
5957M19427MASTROPAOLO SIMONEAPD CIOCIARIA BIKE03:01:49 17.160
6058ELITE SPORT7446SORTINO ANDREAASD ROMA TEAM03:02:48 17.068
6159M110434SORCI GABRIELELAKE BIKE TEAM A.S.D.03:02:52 17.062
6260M38253RUFINI LUCIANOMOUNTAIN BIKE CLUB RIETI03:04:11 16.940
6361ELITE SPORT8209NUCCIARELLI MARCOUC PETRIGNANO ASD03:04:11 16.940
6462ELITE SPORT9245RIGHETTI FEDERICOG.S. TESTI CICLI A.S.D.03:04:23 16.921
6563M39307CIAVOLINO ERNESTOASD VESUVIO MTB03:04:24 16.920
6664M27259SCARPONI CLAUDIOMTB CLUB SPOLETO03:04:28 16.914
6765M111505PASTORELLI PAOLODIEFFE BIKE TEAM03:04:51 16.879
6866M56298CASETTI ANDREAASD CICLI ROMA CLUB BIKE FARM03:05:38 16.807
6967M28323DI CRISTO PALMERINOASD VESUVIO MTB03:06:45 16.707
7068M112514CHIAPPINI WALTERASD LARIS BIKE03:06:46 16.705
7169M410345MASTROIANNI CORRADO ALBERTOASD MTB SILA03:07:06 16.676
7270M113181MARCHETTINI MATTEOTRIONO RACING MEDICAL FREM03:07:09 16.671
7371M29247RISOLDI DAVIDEBIKE CENTER PRO TEAM MTB03:07:16 16.661
7472M114157GRASSINI ALESSANDRODIEFFE BIKE TEAM03:07:26 16.646
7573M5766BAROLA ROBERTOUC PETRIGNANO ASD03:07:29 16.642
7674M411439TIBURZI PAOLOASD CICLI FATATO03:07:54 16.605
7775M41270BIANCHINI DONATELLOASD MTB CASTIGLIONE DEL LAGO03:08:11 16.580
7876ELITE SPORT10309CIRIACI MATTEOAVIS BIKE CINGOLI03:08:14 16.575
793W2122COLPO YLENIAA.S. DILETTANTISTICA ATHESTE BIKE03:08:34 16.546
8077M58243RAGNI WALTERMOUNTAIN BIKE CLUB RIETI03:09:03 16.504
8178ELITE SPORT11293BRIO ALBANO RAFFAELEASD VESUVIO MTB03:09:19 16.480
8279M310508SILVIERI LUCAG.C. CANINO ASD03:09:41 16.449
8380M115340MARIANI ROBERTOASSOCIAZIONE MTB SCANNO03:09:52 16.433
8481M21071BINI FABRIZIOASD GUSTATREVI MTB03:10:25 16.385
8582M211254SABETTA DANIELEMOUNTAIN BIKE CLUB RIETI03:10:37 16.368
8683JUNIOR M230ZUCCHINI SIMONLUCAA.S.D. TEAM SIENA BIKE03:10:41 16.362
8784M413168LIPPI MICHELEASD VELO CLUB RACING ASSISI BASTIA03:11:07 16.325
8885M311418FESTUCCIA DANIELEACIDO LATTICO MTB PASSO CORESE ASD03:11:35 16.285
8986M116127FERRONI ALESSANDROASD FARAM CYCLING TEAM03:12:15 16.229
9087M312329GABRIELE SIMONEAPD CIOCIARIA BIKE03:12:59 16.167
9188M313359RABOTTINI MARCELLOASD NATURABRUZZO03:13:02 16.163
9289M212165LAUDATI GRAZIANOASD FARAM CYCLING TEAM03:13:07 16.156
9390M62386BORGI LORENZOASD MTBSANTAMARINELLA CICLIMONTANIN03:13:07 16.156
9491M414388SALIS MASSIMILIANOAVIS PRATOVECCHIO-ERREPI-LEE COUGAN03:13:12 16.149
9592M314349PAPI ALBERTOASD COLLARMELE MTB03:13:17 16.142
9693M59203NAPOLINI FRANCOMTB CLUB SPOLETO03:13:24 16.132
9794M415281ZANCHI ROBERTORUOTA LIBERA A.S.D.03:13:33 16.120
9895ELITE1315LEVI MARCOG.C. CAPODARCO-COMUNITA'03:14:55 16.007
9996M213445DI GIANNANTONIO NINOASD CICLI SPORT MANIA03:14:59 16.001
10097ELITE1416COLLINI MATTEOSTIPA FONTE COLLINA CICLI FALGIANI03:15:10 15.986
10198M OVER2379TOZZI MARIOAPD CIOCIARIA BIKE03:15:21 15.971
10299M214267SPIGARELLI MICHELEASD VELO CLUB RACING ASSISI BASTIA03:15:48 15.935
103100M416246RISI MAURIZIOMTB CLUB SPOLETO03:15:56 15.924
104101ELITE SPORT12409CAPPELLETTI SIMONEASD LIKE BRACCIANO BIKE03:16:49 15.852
105102M215208NOTTOLI ALESSIOUMBERTIDE CYCLING TEAM03:17:24 15.806
1064ELITE F221GRIFI SARAROYAL BIKE03:17:27 15.802
107103M31580BRUGNONI VALERIOSC PARLESCA TEAM MOTORPOINT03:17:43 15.780
108104ELITE SPORT13193MESCHINI ANDREAASD VELO CLUB RACING ASSISI BASTIA03:17:50 15.771
109105M316140GENTILI ANDREAASD FARAM CYCLING TEAM03:18:01 15.756
110106M6399CIAVARELLI PAOLOASD SC CENTRO BICI TEAM TERNI03:18:05 15.751
111107M216342MARINO FABIOASD NON SOLO CICLISMO03:18:42 15.702
112108M317336LARDIZZONE ALESSANDROASD CUSTOM4.IT CYCLING TEAM03:18:52 15.689
113109M417255SALZERI PIERLUIGIDISLIVELLO CAMP ASD03:19:29 15.640
114110M318113D'ANGELO ALESSANDROTRIONO RACING MEDICAL FREM03:19:34 15.634
115111M510463ABBRUCIATI LUCAVELO CLUB CICLI CINGOLANI ASD03:20:36 15.553
116112ELITE SPORT14198MONTI FABIOCASTELTROSINO SUPERBIKE03:20:38 15.551
117113M511180MARCHEGGIANI CESAREDIEFFE BIKE TEAM03:20:39 15.550
118114M OVER3369SARTI STEFANOTRIONO RACING MEDICAL FREM03:21:51 15.457
119115M319156GRANTURCHELLI LORENZOUMBERTIDE CYCLING TEAM03:21:56 15.451
120116M512177MARABISSI FRANCESCOASD LARIS BIKE03:22:15 15.427
121117M513158GRAZIUSO RAFFAELESC PARLESCA TEAM MOTORPOINT03:22:53 15.378
122118M418365SANDRI ANDREAASD BIKESHOP TEAM ROMA03:23:38 15.322
123119M64437STELLA PAOLOUC PETRIGNANO ASD03:23:53 15.303
124120M514148GIGLIARELLI CLAUDIOUMBERTIDE CYCLING TEAM03:24:20 15.269
125121M65351PERRELLA CIROASD VESUVIO MTB03:24:47 15.236
126122M217283AGNOCCO STEFANOAPD CIOCIARIA BIKE03:25:48 15.160
127123M32069BERARDI GIORGIOVELO CLUB CICLI CINGOLANI ASD03:26:04 15.141
128124M419361RISI GIANLUCAMATESE MOUNTAINBIKE03:26:18 15.124
129125M218358PRIORIELLO FRANCESCOMATESE MOUNTAINBIKE03:26:18 15.124
130126ELITE SPORT1576BONIFAZI SIMONECIB MONTANINI ECO FUTURA03:26:29 15.110
131127M117286ANELLI FRANCESCOA.S.D. MTB RUOTE MATTE CECCANO03:26:45 15.091
132128M321104COLASANTI MASSIMOMOUNTAIN BIKE CLUB RIETI03:26:46 15.090
133129M322282ZANNOLI PAOLOMTB CLUB SPOLETO03:27:44 15.019
134130M515504SCORZONI ANDREACICLISMO MARINA MILITARE03:27:51 15.011
135131M420319DEL BIANCO CARLO ALBERTOAVIS BIKE CINGOLI03:28:29 14.965
136132M421374SILLA MASSIMOASSOCIAZIONE MTB SCANNO03:29:21 14.903
137133M66354PIERANUNZI LUCIANODIGIOTEK TEAM03:29:50 14.869
1385W12191MAZZORANA SARAA.S.D. TEAM BIKE MIRANDA03:30:04 14.852
139134M67279VIOLA ERNESTOCICLOTURISTICA MASSA MARTANA03:31:40 14.740
140135M323211PALAZZETTI ANTONIOUMBERTIDE CYCLING TEAM03:31:41 14.739
141136M4223SGAMMOTTA RICCARDOASD COLLARMELE MTB03:32:20 14.694
142137M324429MOSTARDA ANGELOMOUNTAIN BIKE CLUB RIETI03:32:53 14.656
143138ELITE SPORT1667BAZZUCCHI GIACOMOLAKE BIKE TEAM ASD03:33:10 14.636
144139M68380VENUSTO MARIOASD VESUVIO MTB03:33:37 14.606
145140M325501BOSCHI MIRCOTEAM RABBIT NOXON PMP03:34:55 14.517
146141M326266SPEZIALI JURIASD VELO CLUB RACING ASSISI BASTIA03:34:56 14.516
1476W22474BARTOLINI VALERIATEAM TORPEDO BIKE03:35:00 14.512
148142M219425MANDOZZI LUCAASD BICI CLUB SIBILLINI03:35:43 14.463
149143M220313CORTESE RICCARDOASSOCIAZIONE MTB SCANNO03:35:45 14.461
150144M221215PARMEGIANI LUIGIMOUNTAIN BIKE CLUB RIETI03:35:49 14.457
151145M327423LUCENTINI ALESSANDROASD BRICTENSE CICLISMO03:36:16 14.427
152146M516471GENNARI DARIOTRIONO RACING MEDICAL FREM03:36:18 14.424
153147M517324DI GIOVANNI PIETROA.S.D. SANTA MARIA DELLE MOLE03:36:46 14.393
154148M OVER459ANGELETTI PIEROA.S.D. TEAM BIKE MIRANDA03:36:50 14.389
155149M518362ROCCO PATRIZIOASD VESUVIO MTB03:37:30 14.345
156150M423179MARANI MARCOG.S. TESTI CICLI A.S.D.03:38:00 14.312
157151M519105COLOMBO DAVIDEMOUNTAIN BIKE CLUB RIETI03:38:24 14.286
158152M42481BUONO ANDREAASD VELO CLUB RACING ASSISI BASTIA03:39:22 14.223
159153M328213PAOLINO GIUSEPPEGS GRIFO BIKE PERUGIA ASD03:39:27 14.217
160154M520185MARIOLI DANILOCICLO CLUB DERUTA03:39:49 14.194
161155M222129PADIGLIONI FEDERICOFREEBIKE MARSCIANO ASD03:39:49 14.194
162156M223411CIOTOLI DAMIANOA.S.D. MTB RUOTE MATTE CECCANO03:39:52 14.190
163157M118510CERQUETELLI SIMONEA.S.D IRON BIKE03:40:14 14.167
164158M425305CIAMBA GIANLUCAASD CICLI ROMA CLUB BIKE FARM03:41:18 14.099
165159M521244RAGUGINI ANDREA PIOAVIS GUALDO TADINO03:41:50 14.065
166160M522216PARRETTI GABRIELEASD LARIS BIKE03:42:29 14.024
167161M329109CREZZINI EMANUELEASD LARIS BIKE03:42:30 14.023
168162M22496CHIERCHINI MARCOASD LARIS BIKE03:42:30 14.023
169163M330422GRASSI ANTONIOGRUPPO MTB PEDALANDO03:42:52 13.999
170164M69469MELA MASSIMOTRIONO RACING MEDICAL FREM03:43:09 13.982
171165M331285AMATUZIO LIBERATOMATESE MOUNTAINBIKE03:43:20 13.970
172166M426294AURELI VENANZIOASD COLLARMELE MTB03:43:52 13.937
173167M225291BIANCO ANGELOASD NON SOLO CICLISMO03:44:39 13.888
1747W13175MAIOTTI MARINACICLO CLUB DERUTA03:46:47 13.758
175168M119341MARINI ALESSANDROASD CICLI ROMA CLUB BIKE FARM03:47:04 13.741
176169ELITE SPORT17389ACCIAI ANDREAAVIS PRATOVECCHIO-ERREPI-LEE COUGAN03:48:03 13.681
177170ELITE SPORT18223PETRELLI GLAUCOCASTELTROSINO SUPERBIKE03:49:08 13.617
178171M120138GALLI MARINOCASTELTROSINO SUPERBIKE03:49:10 13.615
179172M226258SASSINI MARCOCASTELTROSINO SUPERBIKE03:49:12 13.613
180173M332173LUZI LUIGICASTELTROSINO SUPERBIKE03:49:25 13.600
181174M227184MARINI DAVIDECASTELTROSINO SUPERBIKE03:49:26 13.599
182175M42798CIARMA FABRIZIOCASTELTROSINO SUPERBIKE03:49:28 13.597
183176ELITE SPORT1957AMELI GERARDOCASTELTROSINO SUPERBIKE03:49:30 13.595
184177M610239PRESCIUTTI ROBERTOCASTELTROSINO SUPERBIKE03:49:31 13.594
185178M228153GIULIANI FABIOCASTELTROSINO SUPERBIKE03:49:33 13.592
186179M121122ELEUTERI DOMENICOCASTELTROSINO SUPERBIKE03:49:38 13.587
187180M611115DE SANTIS DARIOCASTELTROSINO SUPERBIKE03:49:39 13.586
188181M428151GIOVANNACCI ANDREAPOPPINS BIKE03:50:20 13.546
189182M333387SOMMA ANDREAA.S.D. SANTA MARINELLA03:50:43 13.523
190183ELITE SPORT20236POLI ROBERTOCASTELTROSINO SUPERBIKE03:51:04 13.503
191184M334407BURATTI PAOLOASD SARNANO IN BICI03:51:16 13.491
192185M229178MARAMIGI ALESSANDROASD MC2 BIKE03:52:10 13.439
193186M523457BONIFAZI MARCOSUPERBIKE BRAVI PLATFORM TEAM03:52:11 13.438
194187M524229PIERMARINI DANILOMOUNTAIN BIKE CLUB RIETI03:52:13 13.436
195188M429214PAOLUCCI DANIELEMOUNTAIN BIKE CLUB RIETI03:52:13 13.436
1968W14265SOPRANZI LAURAASD SC CENTRO BICI TEAM TERNI03:52:22 13.427
197189M335201MOSCIONI ALESSIOUMBERTIDE CYCLING TEAM03:52:33 13.417
198190M OVER5458ASCANI MASSIMOA.S.D. TEAM BIKE MIRANDA03:52:58 13.393
199191M430515FERRONI GIUSEPPEAVIS PRATOVECCHIO-ERREPI-LEE COUGAN03:53:10 13.381
200192M336465CHIARINI LUCAIMOLA BIKE ASSOCIAZIONE SPORTIVA DILETTANTISTICA03:53:25 13.367
2019W15464RAGAZZINI ELENAA.S.D. BIKE INNOVATION03:53:25 13.367
202193M337344MASELLA LEONARDOASD CENTER BIKE03:54:23 13.312
203194M122276VALERI FABIOMOUNTAIN BIKE CLUB RIETI03:54:57 13.279
204195M23068BENEDETTI ALESSANDROMTB CLUB SPOLETO03:54:57 13.279
205196M431312COPPARI ALESSANDROAVIS BIKE CINGOLI03:55:07 13.270
206197M432475RICCI DANIELEPOL.CIRC.LAVORATORI TERNI03:57:08 13.157
207198M612377TOBALDI FABRIZIOAVIS BIKE CINGOLI03:57:21 13.145
208199M231231PIETRI ALESSIOPOPPINS BIKE03:57:46 13.122
209200M613416DIAFERIA GABRIELEAS ROMA CICLISMO03:58:26 13.085
210201M433512BIANCOSPINO SIMONECICL. TERONTOLA ATAKAMA RACE03:59:07 13.048
211202M525424MACCHIONI STEFANOA.S.D IRON BIKE03:59:07 13.048
212203M526473MICANTI MARCOTRIONO RACING MEDICAL FREM03:59:24 13.033
213204M338511POSSENTI DANILOASD BIKE RIDERS SABINI03:59:24 13.033
214205M339513FALCHI JANASD CICLI FATATO03:59:26 13.031
215206M340139GASPARI EMILIOCASTELTROSINO SUPERBIKE03:59:35 13.023
216207M434249ROMANDINI MASSIMOCASTELTROSINO SUPERBIKE03:59:35 13.023
217208M52753ALIMENTI GIANLUIGIMTB CLUB SPOLETO04:02:15 12.879
218209M232509MORICI FRANCESCOASD BATTISTELLI EXTREME04:02:44 12.854
219210M233385DOGANIERI BIAGINOMATESE MOUNTAINBIKE04:04:59 12.736
220211M52861ARISI DANIELEMOUNTAIN BIKE CLUB RIETI04:06:20 12.666
221212M43565BARBANERA TOMMASOG.S. TESTI CICLI A.S.D.04:06:25 12.662
222213M123133FOGLIANI AMEDEOFREEBIKE MARSCIANO ASD04:07:40 12.598
223214M436420GETTI MORISINDIVIDUALE04:07:42 12.596
224215ELITE SPORT21142GENTILI FABIOCASTELTROSINO SUPERBIKE04:08:28 12.557
225216M124210OTTONI FABIOCASTELTROSINO SUPERBIKE04:08:32 12.554
226217M437235POLI ANDREA DUILIOCASTELTROSINO SUPERBIKE04:08:36 12.550
227218M125146GIANNETTI ELIACASTELTROSINO SUPERBIKE04:08:37 12.549
228219ELITE SPORT22234POLI ANDREACASTELTROSINO SUPERBIKE04:08:37 12.549
229220JUNIOR M331FEDERICI SIMONECASTELTROSINO SUPERBIKE04:08:37 12.549
230221M341459BIANCHINI MATTEOG.C. CAPODARCO-COMUNITA'04:08:40 12.547
231222M234460TROIANI RIBERTOMTB CLUB SPOLETO04:08:57 12.533
232223M342262SCORTECCIA MATTEOFREEBIKE MARSCIANO ASD04:09:28 12.507
233224M126212PANNAIOLI MATTEOCICLO CLUB DERUTA04:09:33 12.503
234225M343205NATALIZI CLAUDIOFREEBIKE MARSCIANO ASD04:09:33 12.503
235226M438371SCIMEMI ANTONIOCIVITAVECCHIA MTB04:11:31 12.405
236227M439438TASSINARI MARCOAS ROMA CICLISMO04:11:43 12.395
237228M614111CROCIONE ERALDOASD LA BASE MTB CLUB TERNI04:12:40 12.348
238229M344419FICORILLI GABRIELEMOUNTAIN BIKE CLUB RIETI04:17:31 12.116
239230M529507SANSONI GIANNIMTB CLUB VITERBO04:17:32 12.115
240231M345261SCIABORDI GRAZIANOMTB CLUB SPOLETO04:19:32 12.022
241232M530417DURANTI MARCOMTB CLUB SPOLETO04:21:03 11.952
242233M235260SCATENA ANDREASC PARLESCA TEAM MOTORPOINT04:21:33 11.929
243234M236257SANZARI VITTORIOMTB CLUB SPOLETO04:22:52 11.869
244235M440376TESTONI OTELLOA.S.D. SANTA MARIA DELLE MOLE04:23:33 11.838
245236M615220PERELLA GIOVANNIG.S. TESTI CICLI A.S.D.04:24:36 11.791
246237M531453NAPOLI FAUSTO GIORGIOMTB MONTEFIASCONE04:26:13 11.720
247238M237454DONATI DANIELEMTB MONTEFIASCONE04:26:13 11.720
248239M346516AGOSTINELLI MASSIMORUOTE GRASSE04:27:14 11.675
249240M616450CARLONI MASSIMILIANOASD CUSTOM4.IT CYCLING TEAM04:27:15 11.675
250241M617304CHIOVITTI GINOMATESE MOUNTAINBIKE04:29:25 11.581
25110W23414D'ELISO ANNALISAASD MA.AN.RT04:31:11 11.505
252242M OVER6150GIORDANI MARCOMOUNTAIN BIKE CLUB RIETI04:32:22 11.455
253243M OVER7326FAINA GRAZIANOTRIONO RACING MEDICAL FREM04:32:45 11.439
25411JUNIOR F124SABATINI CARMENRUOTA LIBERA A.S.D.04:35:49 11.312
255244M441238PRESCIUTTI MATTEOG.S. TESTI CICLI A.S.D.04:35:49 11.312
256245M532403BATTILANA GIAMPAOLOINDIVIDUALE04:35:51 11.311
257246M61885CALZOLARI CLAUDIOUC PETRIGNANO ASD04:35:59 11.305
258247M34779BORZACCHIELLO GIUSEPPEFREEBIKE MARSCIANO ASD04:37:14 11.254
259248M348441VIOLA MARCOFULL METAL BIKERS04:38:14 11.214
260249M OVER874BISCARINI LUIGIFREEBIKE MARSCIANO ASD04:39:01 11.182
261250M533430PROIETTI MARCOASD CENTOTREDICI04:39:19 11.170
26212W24426MARCHETTI ANNA MARIAGRUPPO MTB PEDALANDO04:41:21 11.089
263251M127413D'ANGELI GIANLUCAMOUNTAIN BIKE CLUB RIETI04:41:22 11.089
264252M12897CIAMBELLI DAVIDEUMBERTIDE CYCLING TEAM04:43:29 11.006
265253M129404BOSCHI GABRIELESQUADRA NON SPECIFICATA05:00:00 10.400
266254M442517PASTURA ROSSANOPASSEPARTOUT05:00:00 10.400
267255M534461CRESTINI SERGIOPGV BIKING A.S.D.05:00:00 10.400
268256M349405BOSCHI MATTEOA.S.D. AQUILE TUDERTI05:00:00 10.400
269257M443401BALDI LUCAASD CASSINIS CYCLING TEAM05:00:00 10.400
270258M350502CAMMARATA ANDREATEAM RABBIT NOXON PMP05:00:00 10.400
271259M238518PALONI GIANLUCAMTB CLUB SPOLETO05:00:00 10.400
272260M351118DIONISI MASSIMILIANOASD FARAM CYCLING TEAM05:00:00 10.400
273261M444466GAGGIOTTI ALESSANDROINDIVIDUALE05:00:00 10.400
274262M53593CERQUAGLIA MARIOUC PETRIGNANO ASD05:00:00 10.400
275263M445467DOMIZIANI ILARIOINDIVIDUALE05:00:00 10.400
276264M352447LAMINCIA GIANLUCACICLO CLUB DERUTA05:00:00 10.400
277265M OVER9352PIANTINI PALMIANOAVIS BIKE CINGOLI05:00:00 10.400
278266M239406BOTONDI MATTEOPOL.CIRC.LAVORATORI TERNI05:00:00 10.400
279267M OVER10225PETRIOLI GIAMPAOLOMTB CLUB SPOLETO06:00:00 8.667
28013W25197MONTAGNINI ZOEMOUNTAIN BIKE CLUB RIETI06:00:00 8.667
281268ELITE1511RIDOLFI RICCARDOCIB MONTANINI ECO FUTURA06:00:00 8.667
282269M446470MORRONI ALESSANDROTRIONO RACING MEDICAL FREM06:00:00 8.667
283270M35391CERNICCHI WALTER GIANNIDIEFFE BIKE TEAM06:00:00 8.667
284271ELITE SPORT23295CACCIAMANI GIOVANNIAVIS BIKE CINGOLI06:00:00 8.667
Righe per pagina::     TUTTE    |   30   |   50   |   100   Pagina:   | 1 | | 2 | | 3 | | 4 | | 5 | | 6 |